CHAMS CYCG-KBIL

Flight info

Callsign CHAMS
Flight time N/A
Altitude 45000
Route YXC J569 GTF J13 BIL
Aircraft C25C/M-SDE2E3FGHRWXY/LB1

Departure

Time 2026-04-18 02:01
Airport Castlegar/West Kootenay Regional Airport (CYCG)

Arrival

Time N/A
Airport Billings Logan International Airport (KBIL)
Time Latitude Longitude Altitude Speed Heading
2026-04-18 01:48 49.30045 -117.63586 1621 ft 0 kts 303°
2026-04-18 01:58 49.30046 -117.63589 1618 ft 2 kts 306°
2026-04-18 01:58 49.30071 -117.63590 1617 ft 4 kts 38°
2026-04-18 01:59 49.30090 -117.63549 1618 ft 4 kts 73°
2026-04-18 01:59 49.30090 -117.63547 1618 ft 4 kts 75°
2026-04-18 01:59 49.30092 -117.63535 1619 ft 3 kts 76°
2026-04-18 01:59 49.30098 -117.63500 1623 ft 8 kts 76°
2026-04-18 02:00 49.30085 -117.63390 1621 ft 13 kts 160°
2026-04-18 02:00 49.29942 -117.63349 1624 ft 43 kts 168°
2026-04-18 02:00 49.29333 -117.63178 1627 ft 135 kts 170°
2026-04-18 02:00 49.28241 -117.62943 2081 ft 175 kts 177°
2026-04-18 02:01 49.26956 -117.62979 2876 ft 192 kts 192°
2026-04-18 02:01 49.25621 -117.63630 3646 ft 222 kts 207°
2026-04-18 02:01 49.24153 -117.64964 4081 ft 257 kts 207°
2026-04-18 02:01 49.22531 -117.66170 5420 ft 274 kts 207°
2026-04-18 02:02 49.20677 -117.67369 6371 ft 290 kts 198°
2026-04-18 02:02 49.18823 -117.67891 8589 ft 257 kts 187°
2026-04-18 02:02 49.16919 -117.67803 9212 ft 303 kts 168°
2026-04-18 02:02 49.14967 -117.66864 10951 ft 281 kts 164°
2026-04-18 02:03 49.13070 -117.66010 12175 ft 292 kts 164°
2026-04-18 02:03 49.11114 -117.65088 13145 ft 303 kts 161°
2026-04-18 02:03 49.09377 -117.63291 14166 ft 308 kts 123°
2026-04-18 02:03 49.08677 -117.60988 14918 ft 306 kts 100°